• In Spain
  • List of Countries
  • For 7 days
  • Water Temperature
  • Satellite Maps
  • Weather Map
  • Weather Widgets
  • user-avatar
    Login

    Hourly Weather La Rioja

    Today, 18 October, Thursday

    Time Temperature Precipitation Wind Pressure Humidity
    00:00 +27°C° 0 mm 2 mps 711 mmHg 17%
    01:00 +27°C° 0 mm 2 mps 711 mmHg 18%
    02:00 +26°C° 0 mm 2 mps 711 mmHg 21%
    03:00 +26°C° 0.1 mm 2 mps 711 mmHg 22%
    04:00 +25°C° 0.1 mm 2 mps 711 mmHg 23%
    05:00 +25°C° 0.1 mm 2 mps 712 mmHg 25%
    06:00 +26°C° 0.1 mm 3 mps 712 mmHg 25%
    07:00 +27°C° 0.1 mm 4 mps 713 mmHg 26%
    08:00 +28°C° 0.1 mm 5 mps 714 mmHg 27%
    09:00 +30°C° 0 mm 5 mps 714 mmHg 27%
    10:00 +32°C° 0 mm 5 mps 714 mmHg 27%
    11:00 +33°C° 0 mm 5 mps 714 mmHg 28%
    12:00 +34°C° 0 mm 5 mps 714 mmHg 27%
    13:00 +35°C° 0 mm 5 mps 713 mmHg 26%
    14:00 +36°C° 0 mm 5 mps 713 mmHg 26%
    15:00 +35°C° 0.2 mm 5 mps 713 mmHg 29%
    16:00 +35°C° 0.2 mm 6 mps 712 mmHg 33%
    17:00 +35°C° 0.2 mm 6 mps 712 mmHg 37%
    18:00 +33°C° 2.3 mm 5 mps 713 mmHg 43%
    19:00 +32°C° 2.3 mm 4 mps 714 mmHg 50%
    20:00 +29°C° 2.3 mm 3 mps 715 mmHg 56%
    21:00 +28°C° 0.9 mm 4 mps 715 mmHg 55%
    22:00 +27°C° 0.9 mm 5 mps 716 mmHg 54%
    23:00 +26°C° 0.9 mm 5 mps 717 mmHg 53%

    Tomorrow, 19 October, Friday

    Time Temperature Precipitation Wind Pressure Humidity
    00:00 +26°C° 0.2 mm 5 mps 717 mmHg 55%
    01:00 +25°C° 0.2 mm 5 mps 717 mmHg 57%
    02:00 +25°C° 0.2 mm 5 mps 717 mmHg 59%
    03:00 +23°C° 0.1 mm 4 mps 717 mmHg 62%
    04:00 +23°C° 0.1 mm 4 mps 717 mmHg 65%
    05:00 +22°C° 0.1 mm 3 mps 717 mmHg 68%
    06:00 +24°C° 0 mm 3 mps 717 mmHg 67%
    07:00 +24°C° 0 mm 3 mps 717 mmHg 66%
    08:00 +24°C° 0 mm 3 mps 718 mmHg 66%
    09:00 +25°C° 0 mm 3 mps 717 mmHg 63%
    10:00 +26°C° 0 mm 3 mps 717 mmHg 61%
    11:00 +27°C° 0 mm 3 mps 717 mmHg 59%
    12:00 +28°C° 0 mm 3 mps 716 mmHg 55%
    13:00 +29°C° 0 mm 4 mps 715 mmHg 52%
    14:00 +30°C° 0 mm 5 mps 714 mmHg 48%
    15:00 +30°C° 0.1 mm 5 mps 714 mmHg 50%
    16:00 +30°C° 0.1 mm 5 mps 713 mmHg 53%
    17:00 +29°C° 0.1 mm 5 mps 713 mmHg 55%
    18:00 +28°C° 0.2 mm 5 mps 713 mmHg 59%
    19:00 +27°C° 0.2 mm 5 mps 714 mmHg 63%
    20:00 +26°C° 0.2 mm 5 mps 715 mmHg 67%
    21:00 +26°C° 0.1 mm 4 mps 715 mmHg 71%
    22:00 +25°C° 0.1 mm 4 mps 715 mmHg 75%
    23:00 +24°C° 0.1 mm 3 mps 716 mmHg 78%

    Day after tomorrow, 20 October, Saturday

    Time Temperature Precipitation Wind Pressure Humidity
    00:00 +24°C° 0.2 mm 3 mps 715 mmHg 79%
    01:00 +24°C° 0.2 mm 3 mps 715 mmHg 79%
    02:00 +24°C° 0.2 mm 2 mps 715 mmHg 80%
    03:00 +24°C° 0.1 mm 2 mps 715 mmHg 80%
    04:00 +23°C° 0.1 mm 2 mps 714 mmHg 81%
    05:00 +23°C° 0.1 mm 2 mps 714 mmHg 81%
    06:00 +24°C° 0.1 mm 3 mps 714 mmHg 79%
    07:00 +24°C° 0.1 mm 3 mps 714 mmHg 77%
    08:00 +24°C° 0.1 mm 3 mps 715 mmHg 75%
    09:00 +25°C° 0.1 mm 3 mps 714 mmHg 71%
    10:00 +26°C° 0.1 mm 3 mps 714 mmHg 67%
    11:00 +27°C° 0.1 mm 3 mps 714 mmHg 63%
    12:00 +28°C° 0 mm 4 mps 713 mmHg 60%
    13:00 +29°C° 0 mm 4 mps 712 mmHg 57%
    14:00 +30°C° 0 mm 4 mps 711 mmHg 53%
    15:00 +29°C° 0 mm 4 mps 711 mmHg 55%
    16:00 +29°C° 0 mm 4 mps 711 mmHg 56%
    17:00 +29°C° 0 mm 5 mps 710 mmHg 58%
    18:00 +28°C° 0.2 mm 4 mps 711 mmHg 61%
    19:00 +28°C° 0.2 mm 4 mps 712 mmHg 65%
    20:00 +27°C° 0.2 mm 3 mps 712 mmHg 69%
    21:00 +27°C° 0.2 mm 3 mps 713 mmHg 71%
    22:00 +26°C° 0.2 mm 3 mps 713 mmHg 73%
    23:00 +26°C° 0.2 mm 3 mps 713 mmHg 74%

    21 October, Sunday

    Time Temperature Precipitation Wind Pressure Humidity
    00:00 +25°C° 0.1 mm 3 mps 713 mmHg 75%
    01:00 +25°C° 0.1 mm 3 mps 712 mmHg 76%
    02:00 +25°C° 0.1 mm 3 mps 712 mmHg 76%
    03:00 +24°C° 0.1 mm 3 mps 712 mmHg 76%
    04:00 +24°C° 0.1 mm 3 mps 711 mmHg 76%
    05:00 +24°C° 0.1 mm 3 mps 711 mmHg 76%
    06:00 +24°C° 0 mm 3 mps 711 mmHg 73%
    07:00 +25°C° 0 mm 2 mps 712 mmHg 70%
    08:00 +25°C° 0 mm 2 mps 712 mmHg 67%
    09:00 +27°C° 0 mm 2 mps 712 mmHg 61%
    10:00 +28°C° 0 mm 3 mps 711 mmHg 55%
    11:00 +29°C° 0 mm 3 mps 711 mmHg 50%
    12:00 +30°C° 0 mm 3 mps 710 mmHg 46%
    13:00 +33°C° 0 mm 3 mps 710 mmHg 43%
    14:00 +34°C° 0 mm 4 mps 709 mmHg 40%
    15:00 +34°C° 0 mm 4 mps 709 mmHg 39%
    16:00 +34°C° 0 mm 4 mps 708 mmHg 39%
    17:00 +34°C° 0 mm 4 mps 708 mmHg 39%
    18:00 +33°C° 0.2 mm 4 mps 709 mmHg 44%
    19:00 +32°C° 0.2 mm 4 mps 710 mmHg 49%
    20:00 +30°C° 0.2 mm 4 mps 711 mmHg 54%
    21:00 +29°C° 1.1 mm 4 mps 711 mmHg 60%
    22:00 +28°C° 1.1 mm 3 mps 711 mmHg 66%
    23:00 +27°C° 1.1 mm 3 mps 712 mmHg 72%

    22 October, Monday

    Time Temperature Precipitation Wind Pressure Humidity
    00:00 +27°C° 1.1 mm 4 mps 712 mmHg 73%
    01:00 +26°C° 1.1 mm 5 mps 712 mmHg 74%
    02:00 +24°C° 1.1 mm 6 mps 712 mmHg 74%
    03:00 +23°C° 0.1 mm 6 mps 712 mmHg 74%
    04:00 +23°C° 0.1 mm 6 mps 712 mmHg 73%
    05:00 +22°C° 0.1 mm 6 mps 713 mmHg 72%
    06:00 +22°C° 0.2 mm 6 mps 713 mmHg 72%
    07:00 +22°C° 0.2 mm 6 mps 714 mmHg 71%
    08:00 +22°C° 0.2 mm 6 mps 715 mmHg 70%
    09:00 +22°C° 0.2 mm 5 mps 715 mmHg 67%
    10:00 +23°C° 0.2 mm 5 mps 715 mmHg 63%
    11:00 +23°C° 0.2 mm 5 mps 715 mmHg 59%
    12:00 +23°C° 0.1 mm 5 mps 714 mmHg 60%
    13:00 +23°C° 0.1 mm 5 mps 714 mmHg 61%
    14:00 +23°C° 0.1 mm 5 mps 713 mmHg 63%
    15:00 +23°C° 0.1 mm 4 mps 713 mmHg 66%
    16:00 +22°C° 0.1 mm 4 mps 713 mmHg 69%
    17:00 +22°C° 0.1 mm 4 mps 713 mmHg 72%
    18:00 +21°C° 0 mm 4 mps 714 mmHg 74%
    19:00 +21°C° 0 mm 3 mps 715 mmHg 76%
    20:00 +20°C° 0 mm 3 mps 716 mmHg 77%
    21:00 +20°C° 0 mm 2 mps 716 mmHg 78%
    22:00 +20°C° 0 mm 2 mps 716 mmHg 78%
    23:00 +19°C° 0 mm 2 mps 716 mmHg 78%

    23 October, Tuesday

    Time Temperature Precipitation Wind Pressure Humidity
    00:00 +19°C° 0 mm 2 mps 716 mmHg 78%
    01:00 +19°C° 0 mm 2 mps 716 mmHg 77%
    02:00 +18°C° 0 mm 2 mps 716 mmHg 76%
    03:00 +18°C° 0 mm 2 mps 716 mmHg 75%
    04:00 +18°C° 0 mm 2 mps 716 mmHg 74%
    05:00 +17°C° 0 mm 2 mps 717 mmHg 73%
    06:00 +18°C° 0 mm 2 mps 717 mmHg 70%
    07:00 +18°C° 0 mm 2 mps 718 mmHg 67%
    08:00 +19°C° 0 mm 2 mps 719 mmHg 64%
    09:00 +20°C° 0 mm 3 mps 718 mmHg 62%
    10:00 +21°C° 0 mm 4 mps 718 mmHg 59%
    11:00 +21°C° 0 mm 4 mps 718 mmHg 56%
    12:00 +22°C° 0 mm 4 mps 717 mmHg 54%
    13:00 +23°C° 0 mm 5 mps 716 mmHg 51%
    14:00 +25°C° 0 mm 5 mps 716 mmHg 49%
    15:00 +25°C° 0 mm 5 mps 715 mmHg 48%
    16:00 +25°C° 0 mm 5 mps 715 mmHg 47%
    17:00 +25°C° 0 mm 5 mps 715 mmHg 47%
    18:00 +23°C° 0 mm 5 mps 715 mmHg 49%
    19:00 +22°C° 0 mm 5 mps 716 mmHg 52%
    20:00 +21°C° 0 mm 4 mps 717 mmHg 55%
    21:00 +21°C° 0 mm 4 mps 717 mmHg 56%
    22:00 +20°C° 0 mm 4 mps 717 mmHg 56%
    23:00 +20°C° 0 mm 3 mps 718 mmHg 56%
    Show more